Weather History for Banff, AB

Change the Weather History Date:

Saturday, March 15, 2014

  Actual Average Record
Temperature  
Mean Temperature 32 °F -  
Max Temperature 38 °F - - ()
Min Temperature 27 °F - - ()
Degree Days  
Heating Degree Days 32    
Moisture  
Dew Point 23 °F    
Average Humidity 67    
Maximum Humidity 98    
Minimum Humidity 38    
Precipitation  
Precipitation 0.00 in - - ()
Sea Level Pressure  
Sea Level Pressure 30.14 in    
Wind  
Wind Speed 6 mph ()    
Max Wind Speed 14 mph    
Max Gust Speed 23 mph    
T = Trace of Precipitation, MM = Missing Value Source: Averaged Metar Reports

Daily Weather History Graph

Daily Weather History Graph

Search for Another Location

Airport:

Trip Planner

Search our weather history database for the weather conditions in past years. The results will help you decide how hot, cold, wet, or windy it might be!

Date:

Astronomy

Mar. 15, 2014 Rise Set
Actual Time 7:55 AM MDT 7:47 PM MDT
Civil Twilight 7:22 AM MDT 8:20 PM MDT
Nautical Twilight 6:44 AM MDT 8:59 PM MDT
Astronomical Twilight 6:04 AM MDT 9:39 PM MDT
Moon 7:10 PM MDT (3/15) 7:13 AM MDT (3/15)
Length of Visible Light 12h 57m
Length of Day
11h 51m
Waxing Gibbous, 99% of the Moon is Illuminated
Mar 15
Waxing Gibbous
Mar 16
Full
Mar 23
Last Quarter
Mar 30
New
Apr 7
First Quarter

Hourly Weather History & Observations

Time (MDT) Temp. Windchill Dew Point Humidity Pressure Visibility Wind Dir Wind Speed Gust Speed Precip Events Conditions
12:00 AM 31.5 °F 26.8 °F 30.9 °F 98% 30.00 in - WSW 4.6 mph - 0.01 in   Unknown
1:00 AM 31.3 °F 26.6 °F 29.5 °F 93% 30.04 in - West 4.6 mph - N/A   Unknown
2:00 AM 30.6 °F 23.8 °F 29.3 °F 95% 30.07 in - WSW 6.9 mph - N/A   Unknown
3:00 AM 29.8 °F 24.9 °F 26.1 °F 86% 30.10 in - WSW 4.6 mph - N/A   Unknown
4:00 AM 27.1 °F 20.7 °F 24.8 °F 91% 30.13 in - SW 5.8 mph - N/A   Unknown
5:00 AM 27.3 °F 20.9 °F 24.6 °F 90% 30.15 in - WSW 5.8 mph - N/A   Unknown
6:00 AM 27.1 °F 18.9 °F 23.5 °F 86% 30.16 in - SW 8.1 mph - N/A   Unknown
7:00 AM 27.3 °F 19.9 °F 23.0 °F 84% 30.20 in - SW 6.9 mph - N/A   Unknown
8:00 AM 28.0 °F 21.7 °F 22.1 °F 78% 30.22 in - West 5.8 mph - N/A   Unknown
9:00 AM 28.4 °F 22.2 °F 21.4 °F 75% 30.22 in - WSW 5.8 mph - N/A   Unknown
10:00 AM 31.8 °F 26.2 °F 21.4 °F 65% 30.22 in - SW 5.8 mph - N/A   Unknown
11:00 AM 36.1 °F 29.9 °F 19.0 °F 50% 30.21 in - SW 8.1 mph - N/A   Unknown
12:00 PM 37.8 °F 30.7 °F 15.1 °F 40% 30.19 in - WSW 10.4 mph 20.7 mph N/A   Unknown
1:00 PM 38.7 °F 31.4 °F 14.9 °F 38% 30.17 in - WSW 11.5 mph 19.6 mph N/A   Unknown
2:00 PM 38.3 °F 30.5 °F 16.2 °F 41% 30.19 in - WSW 12.7 mph 20.7 mph N/A   Unknown
3:00 PM 38.1 °F 30.7 °F 19.0 °F 46% 30.19 in - WSW 11.5 mph 20.7 mph N/A   Unknown
4:00 PM 37.8 °F 30.2 °F 19.8 °F 48% 30.18 in - WSW 11.5 mph 23.0 mph N/A   Unknown
5:00 PM 37.9 °F 29.6 °F 20.7 °F 50% 30.16 in - WSW 13.8 mph 20.7 mph N/A   Unknown
6:00 PM 36.3 °F 28.9 °F 23.4 °F 59% 30.16 in - WSW 10.4 mph 23.0 mph N/A   Unknown
7:00 PM 35.8 °F 29.4 °F 23.7 °F 62% 30.15 in - WSW 8.1 mph 19.6 mph N/A   Unknown
8:00 PM 34.7 °F 28.8 °F 23.2 °F 63% 30.11 in - WSW 6.9 mph 18.4 mph N/A   Unknown
9:00 PM 37.9 °F 31.5 °F 23.2 °F 55% 30.08 in - West 9.2 mph 17.3 mph N/A   Unknown
10:00 PM 38.3 °F 32.5 °F 24.1 °F 57% 30.04 in - WSW 8.1 mph - N/A   Unknown
11:00 PM 37.8 °F 32.5 °F 25.0 °F 60% 29.98 in - WSW 6.9 mph - N/A   Unknown